Location: Newark
(45.4422°N, 16.2769°E)
Time: 17:23:34
(UTC+00:00)

Vanguard 2 - Pass Details

Date: 16 December 2019
Orbit: 553 x 2938 km, 32.9° (Epoch: 25 January)

Event Time Altitude Azimuth Distance (km) Brightness Sun altitude
Rises 21:12:32 0° 207° (SSW) 4,641 - -60.3°
Reaches altitude 10° 21:15:52 10° 195° (SSW) 3,997 - -60.7°
Maximum altitude 21:24:47 28° 143° (SE) 3,555 - -61.9°
Drops below altitude 10° 21:36:50 10° 94° (E) 5,512 - -63.3°
Sets 21:42:28 0° 85° (E) 6,715 - -63.9°
